• în Republica Moldova
  • Lista ţărilor
  • Pe 7 zile
  • Temperatura apei
  • Hartă satelitară
  • Meteo pe hartă
  • Widget-uri
  • user-avatar
    Intrare

    Meteo pe oră la Durres

    Astăzi, 25 Martie, Sâmbătă

    Timp Temperatura Precipitaţii Vânt Presiune Umiditate
    00:00 +15°C° 0 mm 1 m/s 764 mmHg 73%
    01:00 +15°C° 0 mm 1 m/s 764 mmHg 74%
    02:00 +14°C° 0 mm 2 m/s 764 mmHg 76%
    03:00 +14°C° 0 mm 2 m/s 764 mmHg 78%
    04:00 +14°C° 0 mm 2 m/s 764 mmHg 81%
    05:00 +15°C° 0 mm 2 m/s 764 mmHg 76%
    06:00 +16°C° 0 mm 2 m/s 764 mmHg 72%
    07:00 +19°C° 0 mm 1 m/s 764 mmHg 68%
    08:00 +19°C° 0 mm 2 m/s 764 mmHg 60%
    09:00 +21°C° 0 mm 2 m/s 764 mmHg 53%
    10:00 +24°C° 0 mm 2 m/s 764 mmHg 46%
    11:00 +25°C° 0 mm 2 m/s 764 mmHg 45%
    12:00 +25°C° 0 mm 3 m/s 763 mmHg 45%
    13:00 +25°C° 0 mm 4 m/s 763 mmHg 44%
    14:00 +25°C° 0 mm 4 m/s 763 mmHg 47%
    15:00 +23°C° 0 mm 4 m/s 762 mmHg 50%
    16:00 +22°C° 0 mm 4 m/s 762 mmHg 53%
    17:00 +20°C° 0 mm 3 m/s 762 mmHg 64%
    18:00 +17°C° 0 mm 2 m/s 762 mmHg 75%
    19:00 +15°C° 0 mm 2 m/s 762 mmHg 86%
    20:00 +14°C° 0 mm 1 m/s 762 mmHg 87%
    21:00 +14°C° 0 mm 1 m/s 763 mmHg 88%
    22:00 +13°C° 0 mm 1 m/s 763 mmHg 88%
    23:00 +13°C° 0 mm 1 m/s 762 mmHg 88%

    Mâine, 26 Martie, Duminică

    Timp Temperatura Precipitaţii Vânt Presiune Umiditate
    00:00 +13°C° 0 mm 1 m/s 762 mmHg 88%
    01:00 +12°C° 0 mm 1 m/s 762 mmHg 88%
    02:00 +12°C° 0 mm 1 m/s 762 mmHg 88%
    03:00 +12°C° 0 mm 1 m/s 761 mmHg 88%
    04:00 +11°C° 0 mm 1 m/s 761 mmHg 88%
    05:00 +13°C° 0 mm 1 m/s 761 mmHg 83%
    06:00 +14°C° 0 mm 1 m/s 761 mmHg 78%
    07:00 +16°C° 0 mm 1 m/s 761 mmHg 74%
    08:00 +18°C° 0 mm 1 m/s 760 mmHg 67%
    09:00 +19°C° 0 mm 2 m/s 760 mmHg 60%
    10:00 +20°C° 0 mm 2 m/s 760 mmHg 53%
    11:00 +21°C° 0,1 mm 3 m/s 759 mmHg 54%
    12:00 +21°C° 0,1 mm 3 m/s 759 mmHg 55%
    13:00 +21°C° 0,1 mm 4 m/s 758 mmHg 56%
    14:00 +20°C° 0,1 mm 4 m/s 758 mmHg 59%
    15:00 +19°C° 0,1 mm 4 m/s 758 mmHg 62%
    16:00 +19°C° 0,1 mm 4 m/s 758 mmHg 64%
    17:00 +17°C° 0,2 mm 4 m/s 758 mmHg 72%
    18:00 +14°C° 0,2 mm 4 m/s 758 mmHg 79%
    19:00 +12°C° 0,2 mm 4 m/s 759 mmHg 87%
    20:00 +12°C° 0,6 mm 4 m/s 759 mmHg 87%
    21:00 +12°C° 0,6 mm 4 m/s 760 mmHg 87%
    22:00 +12°C° 0,6 mm 5 m/s 760 mmHg 88%
    23:00 +12°C° 0,2 mm 5 m/s 760 mmHg 87%

    Poimâine, 27 Martie, Luni

    Timp Temperatura Precipitaţii Vânt Presiune Umiditate
    00:00 +10°C° 0,2 mm 6 m/s 760 mmHg 87%
    01:00 +10°C° 0,2 mm 6 m/s 760 mmHg 87%
    02:00 +10°C° 0,2 mm 7 m/s 760 mmHg 85%
    03:00 +9°C° 0,2 mm 7 m/s 760 mmHg 84%
    04:00 +9°C° 0,2 mm 7 m/s 760 mmHg 83%
    05:00 +9°C° 0,2 mm 7 m/s 760 mmHg 80%
    06:00 +9°C° 0,2 mm 7 m/s 760 mmHg 77%
    07:00 +9°C° 0,2 mm 7 m/s 761 mmHg 74%
    08:00 +10°C° 0,1 mm 7 m/s 761 mmHg 69%
    09:00 +11°C° 0,1 mm 7 m/s 761 mmHg 64%
    10:00 +12°C° 0,1 mm 7 m/s 761 mmHg 59%
    11:00 +14°C° 0 mm 6 m/s 761 mmHg 57%
    12:00 +14°C° 0 mm 6 m/s 762 mmHg 55%
    13:00 +15°C° 0 mm 6 m/s 762 mmHg 53%
    14:00 +15°C° 0 mm 7 m/s 762 mmHg 54%
    15:00 +15°C° 0 mm 7 m/s 761 mmHg 54%
    16:00 +14°C° 0 mm 7 m/s 761 mmHg 54%
    17:00 +12°C° 0 mm 7 m/s 762 mmHg 59%
    18:00 +11°C° 0 mm 7 m/s 762 mmHg 63%
    19:00 +9°C° 0 mm 7 m/s 763 mmHg 67%
    20:00 +9°C° 0 mm 6 m/s 763 mmHg 68%
    21:00 +8°C° 0 mm 6 m/s 764 mmHg 69%
    22:00 +8°C° 0 mm 6 m/s 764 mmHg 70%
    23:00 +8°C° 0 mm 6 m/s 764 mmHg 70%

    28 Martie, Marţi

    Timp Temperatura Precipitaţii Vânt Presiune Umiditate
    00:00 +8°C° 0 mm 6 m/s 765 mmHg 69%
    01:00 +7°C° 0 mm 6 m/s 765 mmHg 69%
    02:00 +7°C° 0 mm 6 m/s 765 mmHg 70%
    03:00 +7°C° 0 mm 6 m/s 765 mmHg 70%
    04:00 +5°C° 0 mm 6 m/s 765 mmHg 70%
    05:00 +7°C° 0 mm 6 m/s 766 mmHg 68%
    06:00 +8°C° 0 mm 5 m/s 766 mmHg 65%
    07:00 +8°C° 0 mm 5 m/s 766 mmHg 63%
    08:00 +10°C° 0 mm 5 m/s 766 mmHg 55%
    09:00 +14°C° 0 mm 5 m/s 767 mmHg 47%
    10:00 +17°C° 0 mm 4 m/s 767 mmHg 38%
    11:00 +18°C° 0 mm 4 m/s 767 mmHg 36%
    12:00 +19°C° 0 mm 4 m/s 766 mmHg 34%
    13:00 +20°C° 0 mm 4 m/s 766 mmHg 32%
    14:00 +20°C° 0 mm 5 m/s 766 mmHg 34%
    15:00 +20°C° 0 mm 6 m/s 766 mmHg 36%
    16:00 +20°C° 0 mm 7 m/s 766 mmHg 38%
    17:00 +16°C° 0 mm 7 m/s 766 mmHg 47%
    18:00 +14°C° 0 mm 7 m/s 766 mmHg 57%
    19:00 +10°C° 0 mm 6 m/s 767 mmHg 66%
    20:00 +10°C° 0 mm 6 m/s 767 mmHg 66%
    21:00 +10°C° 0 mm 6 m/s 767 mmHg 66%
    22:00 +9°C° 0 mm 5 m/s 768 mmHg 65%
    23:00 +9°C° 0 mm 5 m/s 768 mmHg 65%

    29 Martie, Miercuri

    Timp Temperatura Precipitaţii Vânt Presiune Umiditate
    00:00 +10°C° 0 mm 4 m/s 768 mmHg 64%
    01:00 +10°C° 0 mm 4 m/s 768 mmHg 64%
    02:00 +8°C° 0 mm 4 m/s 767 mmHg 64%
    03:00 +9°C° 0 mm 3 m/s 767 mmHg 63%
    04:00 +9°C° 0 mm 3 m/s 767 mmHg 63%
    05:00 +10°C° 0 mm 3 m/s 767 mmHg 61%
    06:00 +11°C° 0 mm 3 m/s 768 mmHg 58%
    07:00 +11°C° 0 mm 3 m/s 768 mmHg 56%
    08:00 +14°C° 0 mm 3 m/s 768 mmHg 48%
    09:00 +18°C° 0 mm 3 m/s 767 mmHg 40%
    10:00 +20°C° 0 mm 2 m/s 767 mmHg 33%
    11:00 +21°C° 0 mm 3 m/s 767 mmHg 32%
    12:00 +22°C° 0 mm 4 m/s 767 mmHg 31%
    13:00 +23°C° 0 mm 4 m/s 766 mmHg 30%
    14:00 +22°C° 0 mm 5 m/s 766 mmHg 33%
    15:00 +22°C° 0 mm 5 m/s 766 mmHg 37%
    16:00 +21°C° 0 mm 6 m/s 766 mmHg 40%
    17:00 +19°C° 0 mm 6 m/s 766 mmHg 50%
    18:00 +15°C° 0 mm 5 m/s 766 mmHg 61%
    19:00 +13°C° 0 mm 5 m/s 766 mmHg 71%
    20:00 +12°C° 0 mm 5 m/s 766 mmHg 70%
    21:00 +12°C° 0 mm 4 m/s 766 mmHg 68%
    22:00 +12°C° 0 mm 4 m/s 766 mmHg 67%
    23:00 +12°C° 0 mm 4 m/s 766 mmHg 66%

    30 Martie, Joi

    Timp Temperatura Precipitaţii Vânt Presiune Umiditate
    00:00 +11°C° 0 mm 3 m/s 766 mmHg 64%
    01:00 +11°C° 0 mm 3 m/s 766 mmHg 63%
    02:00 +11°C° 0 mm 3 m/s 766 mmHg 62%
    03:00 +11°C° 0 mm 3 m/s 766 mmHg 61%
    04:00 +10°C° 0 mm 3 m/s 766 mmHg 61%
    05:00 +11°C° 0 mm 3 m/s 766 mmHg 59%
    06:00 +12°C° 0 mm 3 m/s 766 mmHg 56%
    07:00 +13°C° 0 mm 3 m/s 766 mmHg 54%
    08:00 +17°C° 0 mm 3 m/s 766 mmHg 48%
    09:00 +20°C° 0 mm 3 m/s 766 mmHg 41%
    10:00 +22°C° 0 mm 3 m/s 766 mmHg 34%
    11:00 +24°C° 0 mm 3 m/s 765 mmHg 33%
    12:00 +23°C° 0 mm 4 m/s 765 mmHg 32%
    13:00 +25°C° 0 mm 5 m/s 765 mmHg 31%
    14:00 +25°C° 0 mm 5 m/s 765 mmHg 35%
    15:00 +23°C° 0 mm 6 m/s 764 mmHg 38%
    16:00 +22°C° 0 mm 6 m/s 764 mmHg 41%
    17:00 +20°C° 0 mm 6 m/s 764 mmHg 52%
    18:00 +16°C° 0 mm 5 m/s 765 mmHg 62%
    19:00 +14°C° 0 mm 5 m/s 765 mmHg 73%
    20:00 +13°C° 0 mm 5 m/s 765 mmHg 71%
    21:00 +13°C° 0 mm 4 m/s 765 mmHg 70%
    22:00 +13°C° 0 mm 4 m/s 766 mmHg 68%
    23:00 +13°C° 0 mm 4 m/s 766 mmHg 66%
    Arată mai mult